Regional Weather Roundup
Issued by NWS

Home | Current Version | Previous Version | Text Only | Print | Product List | Glossary Off
Versions: 1 2 3 4 5 6 7 8 9 10 11 12 13 14 15 16 17 18 19 20 21 22 23 24 25 26 27 28 29 30 31 32 33 34 35 36 37 38 39 40 41 42 43 44 45 46 47 48 49 50

000
ASUS43 KFSD 071202
RWRSD

WEATHER ROUNDUP FOR SOUTH DAKOTA
NATIONAL WEATHER SERVICE SIOUX FALLS SD
600 AM CST WED DEC 07 2016

NOTE: "FAIR" INDICATES FEW OR NO CLOUDS BELOW 12,000 FEET WITH NO
SIGNIFICANT WEATHER AND/OR OBSTRUCTIONS TO VISIBILITY.


SDZ001>005-009-010-012>017-071300-
NORTHWEST AND NORTH CENTRAL SOUTH DAKOTA

CITY           SKY/WX    TMP DP  RH WIND       PRES   REMARKS
BUFFALO          N/A      2  -5  72 NW24      30.14R WCI -21
FAITH            N/A     -2  -7  79 W20       30.21R WCI -24
MOBRIDGE       CLOUDY     7  -3  64 NW25G35   30.16R WCI -15
$$

SDZ012>016-024>037-041>051-057-063-072>074-071300-
SOUTHWEST AND SOUTH CENTRAL SOUTH DAKOTA

CITY           SKY/WX    TMP DP  RH WIND       PRES   REMARKS
RAPID CTY ARPT CLOUDY     4  -4  69 N16       30.20R WCI -15
PIERRE         CLOUDY     7   1  76 W22G29    30.21R WCI -14
CUSTER         CLOUDY    -5 -11  75 CALM      29.97S
ELLSWORTH AFB  CLOUDY     4  -4  71 NW20      30.18R WCI -17
PHILIP         CLEAR      2  -5  72 NW13      30.27R WCI -15
PINE RIDGE     CLOUDY     1  -2  87 CALM      30.19R
SPEARFISH      MOCLDY     1  -8  66 W15G23    30.19R WCI -18
WINNER         FAIR       7  -2  66 NW18G29   30.23R WCI -12
$$

SDZ004>011-016>023-039-040-071300-
NORTHEAST SOUTH DAKOTA

CITY           SKY/WX    TMP DP  RH WIND       PRES   REMARKS
ABERDEEN       CLOUDY     8   0  69 W22G32    30.13R WCI -12
WATERTOWN      MOCLDY     6   0  76 W21G30    30.05R WCI -14
SISSETON         N/A     12   5  73 NW22G31   30.02R WCI  -7
$$

SDZ017-020-022-023-036>040-048>070-071300-
SOUTHEAST SOUTH DAKOTA

CITY           SKY/WX    TMP DP  RH WIND       PRES   REMARKS
SIOUX FALLS    CLEAR      9   3  77 W20G29    30.15R WCI -10
HURON          MOCLDY     8   2  76 NW14      30.19R WCI  -8
MITCHELL       CLEAR     10   3  73 W16G24    30.22R WCI  -7
YANKTON        CLEAR     10   1  67 W15G22    30.22R WCI  -6
$$

ABBREVIATIONS USED IN REMARKS
   TC - TEMPERATURE IN CELSIUS
  WCI - WIND CHILL INDEX
   HX - HEAT INDEX
  VSB - VISIBILITY





USA.gov is the U.S. government's official web portal to all federal, state and local government web resources and services.